Weather Roundup
Issued by NWS

Home | Current Version | Previous Version | Graphics & Text | Print | Product List | Glossary Off
Versions: 1 2 3 4 5 6 7 8 9 10 11 12 13 14 15 16 17 18 19 20 21 22 23 24 25 26 27 28 29 30 31 32 33 34 35 36 37 38 39 40 41 42 43 44 45 46 47 48 49 50

048
NZUS93 KARX 250859
HRRWXR

CURRENT HOURLY OBSERVATIONS ACROSS
MUCH OF THE UPPER MISSISSIPPI VALLEY
NATIONAL WEATHER SERVICE LA CROSSE WI
400 AM CDT TUE JUL 25 2017


...SOUTHEAST MINNESOTA...


CITY           SKY/WX    TMP DP  RH WIND       PRES   REMARKS
ROCHESTER      MOCLDY    61  60  97 S10       30.09S
ROCHESTER/MAYO FAIR      63  60  91 SE7       30.08F
WINONA         MOCLDY    61  57  88 SE6       30.10F
AUSTIN         PTCLDY    63  59  88 S6        30.08R
ALBERT LEA     MOCLDY    66  61  82 S10G18    30.07S
DODGE CENTER   CLOUDY    61  59  94 SE7       30.08F
PRESTON        PTCLDY    60  57  88 S8        30.11F
OWATONNA       CLOUDY    64  61  88 SE13G20   30.05F
FARIBAULT      CLOUDY    64  61  88 SE8       30.05F
$$

...ELSEWHERE IN MINNESOTA...


CITY           SKY/WX    TMP DP  RH WIND       PRES   REMARKS
MINNEAPOLIS    CLOUDY    67  59  75 SE10      30.03F
INTNL FALLS    CLOUDY    60  57  89 S3        29.97S
DULUTH         CLEAR     58  56  93 SE5       30.06S
RED WING       CLOUDY    66  57  72 SE8       30.05S
REDWOOD FALLS  CLOUDY    68  63  84 E5        29.98R
MANKATO        CLOUDY    66  62  87 SE12      30.01F
WORTHINGTON    CLEAR     66  62  87 SE12      29.99F
FAIRMONT       CLOUDY    66  63  90 S16       30.02F
$$

...SOUTHWEST WISCONSIN...


CITY           SKY/WX    TMP DP  RH WIND       PRES   REMARKS
LA CROSSE      PTCLDY    63  60  90 E5        30.12R
PRAIRIE DU CHI PTCLDY    60  58  93 E6        30.12S
BOSCOBEL       PTCLDY    59  57  93 CALM      30.14R
LONE ROCK      NOT AVBL
PLATTEVILLE    CLEAR     60  60 100 E8        30.14F
FORT MC COY    PTCLDY    52  52  99 CALM      30.14R
MAUSTON-NEW LI MOSUNNY   56  56  98 SE3       30.13F
VIROQUA        FAIR      59  59 100 CALM      30.14S
WIS DELLS      CLEAR     56  51  82 SE3       30.15S
$$

...ELSEWHERE IN WISCONSIN...


CITY           SKY/WX    TMP DP  RH WIND       PRES   REMARKS
MILWAUKEE      PTCLDY    61  57  87 CALM      30.16R
MADISON        CLEAR     54  52  93 CALM      30.15S
GREEN BAY      PTCLDY    53  53 100 CALM      30.16R
EAU CLAIRE     NOT AVBL
BLACK RVR FLS  FAIR      51  51 100 CALM      30.13S
MEDFORD        MOCLDY    57  54  88 SE6       30.14S
WAUSAU         PTCLDY    58  53  84 S6        30.14S
WIS RAPIDS     CLOUDY    57  54  89 S3        30.15F
MARSHFIELD     CLOUDY    57  53  86 S6        30.14R
RICE LAKE      CLOUDY    63  58  86 SE8       30.08F
$$

...NORTHEAST IOWA...


CITY           SKY/WX    TMP DP  RH WIND       PRES   REMARKS
WATERLOO       NOT AVBL
DUBUQUE        CLEAR     61  59  93 SE7       30.15R
DECORAH        PTCLDY    61  59  94 SE8       30.11S
MASON CITY     CLOUDY    63  61  93 S14       30.08S
CHARLES CITY   MOCLDY    63  63 100 SE8       30.10S
OELWEIN          N/A    N/A N/A N/A MISG        N/A
$$

...ELSEWHERE IN IOWA...


CITY           SKY/WX    TMP DP  RH WIND       PRES   REMARKS
DES MOINES     CLOUDY    68  65  90 SE12      30.05F
IOWA CITY      NOT AVBL
FORT DODGE     CLEAR     66  63  88 SE10      30.03F
MARSHALLTOWN   CLOUDY    64  63  96 SE10      30.07F
CEDAR RAPIDS   NOT AVBL
$$

...NORTHERN ILLINOIS...


CITY           SKY/WX    TMP DP  RH WIND       PRES   REMARKS
CHICAGO-OHARE  PTCLDY    63  59  87 CALM      30.15R
CHICAGO-MIDWAY PTCLDY    67  62  84 SE5       30.15R
MOLINE         CLEAR     61  58  90 E6        30.13R
ROCKFORD       CLEAR     61  57  87 CALM      30.16S
PEORIA         CLEAR     63  61  93 E8        30.13R
$$

NOTE: "FAIR" INDICATES FEW OR NO CLOUDS BELOW 12,000 FEET WITH NO
SIGNIFICANT WEATHER AND/OR OBSTRUCTIONS TO VISIBILITY. WIND
SPEEDS ARE IN MILES-PER-HOUR.




USA.gov is the U.S. government's official web portal to all federal, state and local government web resources and services.